This demonstration page uses our WeatherBlox Daily Observations layout. Learn more.

Left ArrowRight Arrow

44.31136, -96.79839

Hourly Observations for September 24, 2021

Temp ( °F °C ) Dew Point ( °F °C ) Humidity (%) Winds ( mph kmh ) Pressure ( in mb ) Visibility ( mi km ) Precip ( " mm )
12:56 am 00:56 Clear 50 10 46 7.8 86 86 W 3 6 29.91 1013 10 16 0.00 0.00
1:56 am 01:56 Clear 50 10 48 8.9 93 93 Calm 29.88 1012 10 16 0.00 0.00
2:56 am 02:56 Clear 48 8.9 47 8.3 96 96 Calm 29.88 1012 10 16 0.00 0.00
3:56 am 03:56 Clear 45 7.2 44 6.7 97 97 NW 5 7 29.90 1012 10 16 0.00 0.00
4:56 am 04:56 Clear 50 10 47 8.3 89 89 N 3 6 29.90 1013 10 16 0.00 0.00
5:56 am 05:56 Mostly Clear 58 14.4 51 10.6 78 78 N 15 24 29.91 1013 10 16 0.00 0.00
6:56 am 06:56 Mostly Cloudy 59 15 49 9.4 69 69 N 21 33 29.93 1014 10 16 0.00 0.00
7:56 am 07:56 Cloudy with Light Rain 53 11.7 47 8.3 80 80 N 13 20 30.00 1016 10 16 0.00 0.00
8:36 am 08:36 Cloudy with Light Rain 54 12 45 7 72 72 NNE 10 17 29.97 1015 1 2 0.01 0.25
8:42 am 08:42 Cloudy with Haze 54 12 45 7 72 72 N 9 15 29.97 1015 4 6 0.01 0.25
8:56 am 08:56 Cloudy with Light Rain 53 11.7 44 6.7 72 72 N 9 15 30.01 1016 10 16 0.01 0.25
9:56 am 09:56 Cloudy 54 12.2 46 7.8 75 75 NW 10 17 30.04 1017 10 16 0.00 0.00
10:54 am 10:54 Hazy 59 15 45 7 59 59 N 13 20 29.98 1015 3 4 0.00 0.00
10:56 am 10:56 Hazy 59 15 44 6.7 58 58 NNW 10 17 30.05 1018 3 4 0.00 0.00
11:04 am 11:04 Mostly Sunny 61 16 43 6 52 52 NNW 13 20 29.98 1015 10 16 0.00 0.00
11:56 am 11:56 Sunny 63 17.2 40 4.4 43 43 NNW 21 33 30.04 1017 10 16 0.00 0.00
12:56 pm 12:56 Sunny 64 17.8 39 3.9 40 40 NNW 14 22 30.06 1018 10 16 0.00 0.00
1:56 pm 13:56 Mostly Sunny 65 18.3 36 2.2 34 34 NW 21 33 30.05 1018 10 16 0.00 0.00
2:56 pm 14:56 Mostly Sunny 65 18.3 34 1.1 32 32 NW 22 35 30.04 1017 10 16 0.00 0.00
3:41 pm 15:41 Hazy 64 18 30 -1 28 28 NW 25 41 29.96 1015 2 3 0.00 0.00
3:51 pm 15:51 Sunny 63 17 32 0 32 32 NW 21 33 29.97 1015 10 16 0.00 0.00
3:56 pm 15:56 Sunny 63 17.2 32 0 31 31 NW 21 33 30.05 1018 10 16 0.00 0.00
4:56 pm 16:56 Sunny 63 17.2 31 -0.6 30 30 NW 18 30 30.06 1018 10 16 0.00 0.00
5:56 pm 17:56 Sunny 61 16.1 31 -0.6 32 32 NW 18 30 30.06 1018 10 16 0.00 0.00
6:56 pm 18:56 Sunny 57 13.9 33 0.6 41 41 NW 12 19 30.07 1018 10 16 0.00 0.00
7:56 pm 19:56 Clear 51 10.6 33 0.6 50 50 NW 7 11 30.09 1019 10 16 0.00 0.00
8:56 pm 20:56 Clear 46 7.8 33 0.6 61 61 WNW 3 6 30.11 1020 10 16 0.00 0.00
9:56 pm 21:56 Clear 45 7.2 32 0 61 61 WSW 5 7 30.11 1020 10 16 0.00 0.00
10:56 pm 22:56 Clear 45 7.2 32 0 61 61 WSW 3 6 30.10 1019 10 16 0.00 0.00
11:56 pm 23:56 Clear 44 6.7 34 1.1 68 68 SW 3 6 30.10 1019 10 16 0.00 0.00

Powered by AerisWeather